Home   Weather   Bülach   Past weeks

Flag for Switzerland Past Weather in Bülach, Zurich, Switzerland — Yesterday and Last 2 Weeks

Now
55 °F

Cool.


Feels Like: 54 °F
Forecast: 46 / 70 °F
Wind: 6 mph from Southeast

Location: Zurich-Kloten

Current Time: Sep 29, 2016 at 10:27:16 AM

Latest Report: Sep 29, 2016 at 9:00 AM


Visibility: N/A

Pressure: 30.32 "Hg

Humidity: 92%

Dew Point: 53 °F

Location of BülachLocation

Past Weather in Bülach — Graph

°F

Bülach Temperature Yesterday

Maximum temperature yesterday: 72 °F (at 4:00 PM)
Minimum temperature yesterday: 45 °F (at 5:00 AM)
Average temperature yesterday: 57 °F

High & Low Weather Summary for the Past Weeks

 TemperatureHumidityPressure
High83 °F (Sep 14, 5:00 PM)100% (Sep 20, 12:00 AM)30.47 "Hg (Sep 20, 12:00 AM)
Low41 °F (Sep 22, 7:00 AM)40% (Sep 25, 4:00 PM)29.80 "Hg (Sep 14, 5:00 PM)
Average58 °F82%30.12 "Hg
* Reported Sep 14 9:00 AM — Sep 29 9:00 AM, Bülach, Weather by CustomWeather, © 2016

Note: Actual official high and low records may vary slightly from our data, if they occured in-between our weather recording intervals... More about our weather records

Advertising

Bülach Weather History for the Previous 24 Hours

Scroll right to see more
 ConditionsComfort  
Time TempWeatherWind HumidityBarometerVisibility
9:00 AM
Thu, Sep 29
55 °FCool.6 mph92%30.32 "HgN/A
8:00 AM50 °FFog.5 mph98%30.33 "Hg6 mi
7:00 AM51 °FCool.5 mph96%30.34 "HgN/A
6:00 AM49 °FCool.3 mph95%30.35 "HgN/A
5:00 AM48 °FFog.5 mph98%30.37 "Hg4 mi
4:00 AM49 °FCool.2 mph100%30.38 "HgN/A
3:00 AM50 °FCool.2 mph99%30.39 "HgN/A
2:00 AM48 °FFog.2 mph99%30.41 "Hg11 mi
1:00 AM51 °FCool.2 mph97%30.41 "HgN/A
12:00 AM54 °FCool.3 mph93%30.41 "HgN/A
11:00 PM
Wed, Sep 28
55 °FFog.2 mph96%30.41 "Hg7 mi
10:00 PM56 °FCool.3 mph94%30.41 "HgN/A
9:00 PM60 °FCool.2 mph81%30.40 "HgN/A
8:00 PM60 °FPassing clouds.1 mph80%30.39 "Hg9 mi
7:00 PM64 °FMild.2 mph71%30.37 "HgN/A
6:00 PM69 °FMild.6 mph57%30.35 "HgN/A
5:00 PM71 °FPartly sunny.7 mph53%30.34 "Hg12 mi
4:00 PM72 °FMild.7 mph51%30.34 "HgN/A
3:00 PM71 °FMild.6 mph51%30.36 "HgN/A
2:00 PM69 °FScattered clouds.7 mph59%30.39 "Hg9 mi
1:00 PM66 °FMild.7 mph64%30.41 "HgN/A
12:00 PM64 °FMild.6 mph71%30.43 "HgN/A
11:00 AM59 °FFog.3 mph88%30.46 "Hg2 mi
10:00 AM55 °FCool.2 mph95%30.47 "HgN/A
Weather by CustomWeather, © 2016

See weather overviewHow to use our weather pages